Weather History for Erie, CO

Change the Weather History Date:

Thursday, November 1, 2012

  Actual Average (KBJC) Record (KBJC)
Temperature  
Mean Temperature 49 °F -  
Max Temperature 66 °F 53 °F 75 °F (1988)
Min Temperature 32 °F 33 °F 7 °F (1991)
Degree Days  
Heating Degree Days 16    
Moisture  
Dew Point 34 °F    
Average Humidity 63    
Maximum Humidity 92    
Minimum Humidity 23    
Precipitation  
Precipitation 0.00 in - - ()
Sea Level Pressure  
Sea Level Pressure 30.02 in    
Wind  
Wind Speed 1 mph (South)    
Max Wind Speed 6 mph    
Max Gust Speed -    
Visibility 10 miles    
Events      
Averages and records for this station are not official NWS values.
T = Trace of Precipitation, MM = Missing Value Source: NWS Daily Summary

Daily Weather History Graph

Daily Weather History Graph

Search for Another Location

Airport:

Trip Planner

Search our weather history database for the weather conditions in past years. The results will help you decide how hot, cold, wet, or windy it might be!

Date:

Astronomy

Nov. 01, 2012 Rise Set
Actual Time 7:29 AM MDT 5:57 PM MDT
Civil Twilight 7:01 AM MDT 6:25 PM MDT
Nautical Twilight 6:29 AM MDT 6:57 PM MDT
Astronomical Twilight 5:58 AM MDT 7:28 PM MDT
Moon 7:56 PM MDT (11/1) 10:04 AM MDT (11/1)
Length of Visible Light 11h 23m
Length of Day
10h 27m
Waning Gibbous, 92% of the Moon is Illuminated
Nov 1
Waning Gibbous
Nov 6
Last Quarter
Nov 13
New
Nov 20
First Quarter
Nov 28
Full

Hourly Weather History & Observations

Time (MDT) Temp. Windchill Dew Point Humidity Pressure Visibility Wind Dir Wind Speed Gust Speed Precip Events Conditions
12:15 AM 38.5 °F - 32.5 °F 79% 30.16 in 10.0 mi Calm Calm - N/A   Clear
12:35 AM 39.4 °F - 32.4 °F 76% 30.15 in 10.0 mi Calm Calm - N/A   Clear
12:55 AM 39.2 °F - 32.0 °F 75% 30.15 in 10.0 mi Calm Calm - N/A   Clear
1:15 AM 38.1 °F 35.7 °F 32.2 °F 79% 30.14 in 10.0 mi SSW 3.5 mph - N/A   Clear
1:35 AM 36.0 °F 33.3 °F 32.0 °F 86% 30.13 in 10.0 mi South 3.5 mph - N/A   Clear
1:55 AM 36.7 °F - 32.0 °F 83% 30.12 in 10.0 mi Calm Calm - N/A   Clear
2:15 AM 36.9 °F 34.3 °F 32.0 °F 83% 30.12 in 10.0 mi SSE 3.5 mph - N/A   Clear
2:35 AM 35.4 °F - 31.8 °F 87% 30.12 in 10.0 mi Calm Calm - N/A   Clear
2:55 AM 34.9 °F - 30.9 °F 85% 30.11 in 10.0 mi Calm Calm - N/A   Clear
3:15 AM 33.6 °F - 31.6 °F 92% 30.11 in 10.0 mi Calm Calm - N/A   Clear
3:35 AM 35.2 °F - 31.1 °F 85% 30.11 in 10.0 mi Calm Calm - N/A   Clear
3:55 AM 32.9 °F 29.8 °F 30.7 °F 92% 30.09 in 10.0 mi WSW 3.5 mph - N/A   Clear
4:15 AM 33.3 °F 30.2 °F 31.1 °F 92% 30.09 in 10.0 mi South 3.5 mph - N/A   Clear
4:35 AM 34.9 °F 32.0 °F 31.3 °F 87% 30.08 in 10.0 mi SSW 3.5 mph - N/A   Clear
4:55 AM 34.7 °F 31.8 °F 30.9 °F 86% 30.08 in 10.0 mi SSW 3.5 mph - N/A   Clear
5:15 AM 36.1 °F - 30.7 °F 81% 30.07 in 10.0 mi Calm Calm - N/A   Clear
5:35 AM 35.2 °F - 30.7 °F 84% 30.06 in 10.0 mi Calm Calm - N/A   Clear
6:15 AM 35.4 °F - 30.4 °F 82% 30.06 in 10.0 mi Calm Calm - N/A   Clear
6:35 AM 32.5 °F - 30.0 °F 90% 30.05 in 10.0 mi Calm Calm - N/A   Clear
7:35 AM 33.3 °F - 30.4 °F 89% 30.05 in 10.0 mi Calm Calm - N/A   Clear
8:15 AM 35.6 °F - 31.6 °F 85% 30.05 in 10.0 mi Calm Calm - N/A   Clear
8:35 AM 35.8 °F - 32.0 °F 86% 30.05 in 10.0 mi Calm Calm - N/A   Clear
9:15 AM 41.0 °F - 36.3 °F 83% 30.05 in 10.0 mi Calm Calm - N/A   Clear
9:35 AM 43.3 °F - 36.1 °F 76% 30.04 in 10.0 mi Calm Calm - N/A   Clear
10:15 AM 46.8 °F - 36.1 °F 67% 30.04 in 10.0 mi Calm Calm - N/A   Clear
10:35 AM 48.6 °F - 37.9 °F 67% 30.04 in 10.0 mi Calm Calm - N/A   Clear
10:55 AM 50.2 °F - 36.9 °F 60% 30.04 in 10.0 mi Calm Calm - N/A   Clear
11:15 AM 52.0 °F - 36.5 °F 56% 30.04 in 10.0 mi Calm Calm - N/A   Clear
11:35 AM 54.3 °F - 34.9 °F 48% 30.03 in 10.0 mi Calm Calm - N/A   Clear
11:55 AM 56.3 °F - 34.5 °F 44% 30.02 in 10.0 mi Calm Calm - N/A   Clear
12:15 PM 57.7 °F - 32.2 °F 38% 30.01 in 10.0 mi North 3.5 mph - N/A   Clear
12:35 PM 59.7 °F - 32.0 °F 35% 30.00 in 10.0 mi Calm Calm - N/A   Clear
1:15 PM 64.4 °F - 30.9 °F 29% 29.97 in 10.0 mi Calm Calm - N/A   Clear
1:35 PM 66.9 °F - 30.4 °F 26% 29.97 in 10.0 mi Calm Calm - N/A   Clear
1:55 PM 66.2 °F - 29.1 °F 25% 29.95 in 10.0 mi ESE 5.8 mph - N/A   Clear
2:35 PM 66.9 °F - 28.2 °F 23% 29.95 in 10.0 mi Calm Calm - N/A   Clear
2:55 PM 66.9 °F - 28.8 °F 24% 29.95 in 10.0 mi Calm Calm - N/A   Clear
3:15 PM 66.4 °F - 28.9 °F 25% 29.95 in 10.0 mi NE 3.5 mph - N/A   Clear
3:35 PM 65.7 °F - 28.2 °F 24% 29.94 in 10.0 mi East 4.6 mph - N/A   Clear
3:55 PM 64.6 °F - 30.9 °F 28% 29.95 in 10.0 mi NE 4.6 mph - N/A   Clear
4:15 PM 61.7 °F - 36.9 °F 40% 29.94 in 10.0 mi NNE 5.8 mph - N/A   Clear
4:35 PM 61.0 °F - 37.9 °F 42% 29.95 in 10.0 mi North 5.8 mph - N/A   Clear
4:55 PM 60.8 °F - 36.1 °F 40% 29.95 in 10.0 mi Calm Calm - N/A   Clear
5:15 PM 59.7 °F - 37.8 °F 44% 29.95 in 10.0 mi Calm Calm - N/A   Clear
5:35 PM 57.2 °F - 37.2 °F 47% 29.96 in 10.0 mi Calm Calm - N/A   Clear
5:55 PM 55.4 °F - 37.0 °F 50% 29.96 in 10.0 mi Calm Calm - N/A   Clear
6:15 PM 52.3 °F - 36.3 °F 54% 29.96 in 10.0 mi Calm Calm - N/A   Clear
6:35 PM 50.9 °F - 36.7 °F 58% 29.96 in 10.0 mi SW 4.6 mph - N/A   Clear
6:55 PM 50.0 °F - 36.9 °F 61% 29.97 in 10.0 mi Calm Calm - N/A   Clear
7:15 PM 48.9 °F - 36.9 °F 63% 29.97 in 10.0 mi SSW 4.6 mph - N/A   Clear
7:35 PM 50.2 °F - 37.0 °F 61% 29.96 in 10.0 mi South 4.6 mph - N/A   Clear
7:55 PM 49.1 °F - 37.6 °F 64% 29.96 in 10.0 mi SSW 5.8 mph - N/A   Clear
8:15 PM 48.2 °F - 37.6 °F 67% 29.96 in 10.0 mi SSW 4.6 mph - N/A   Clear
8:35 PM 48.7 °F - 37.4 °F 65% 29.96 in 10.0 mi South 3.5 mph - N/A   Clear
8:55 PM 47.8 °F - 37.4 °F 67% 29.96 in 10.0 mi SSW 4.6 mph - N/A   Clear
9:15 PM 47.7 °F - 37.6 °F 68% 29.96 in 10.0 mi South 4.6 mph - N/A   Clear
9:35 PM 50.0 °F - 37.0 °F 61% 29.96 in 10.0 mi Calm Calm - N/A   Clear
9:55 PM 48.2 °F - 36.9 °F 65% 29.96 in 10.0 mi Calm Calm - N/A   Clear
10:15 PM 47.7 °F - 36.9 °F 66% 29.96 in 10.0 mi SSE 4.6 mph - N/A   Clear
10:35 PM 46.8 °F - 37.0 °F 69% 29.96 in 10.0 mi SSW 5.8 mph - N/A   Clear
10:55 PM 47.3 °F - 36.0 °F 65% 29.96 in 10.0 mi Calm Calm - N/A   Clear
11:15 PM 46.0 °F 44.8 °F 36.5 °F 69% 29.96 in 10.0 mi ESE 3.5 mph - N/A   Clear
11:35 PM 46.2 °F 45.0 °F 36.1 °F 68% 29.95 in 10.0 mi South 3.5 mph - N/A   Clear
11:55 PM 46.8 °F - 35.6 °F 65% 29.94 in 10.0 mi Calm Calm - N/A   Clear